Regional Weather Roundup
Issued by NWS

Home | Current Version | Previous Version | Text Only | Print | Product List | Glossary Off
Versions: 1 2 3 4 5 6 7 8 9 10 11 12 13 14 15 16 17 18 19 20 21 22 23 24 25 26 27 28 29 30 31 32 33 34 35 36 37 38 39 40 41 42 43 44 45 46 47 48

000
ASUS45 KSLC 012110
RWRUT

UTAH REGIONAL WEATHER ROUNDUP
NATIONAL WEATHER SERVICE SALT LAKE CITY UT
300 PM MDT WED APR 01 2015

UTZ001>011-023>025-012200-

NORTHERN UTAH

CITY           SKY/WX    TMP DP  RH WIND       PRES   REMARKS
BRIGHAM CITY   MOSUNNY   51  10  19 W7        30.05F
HILL AFB       MOSUNNY   47  20  34 VRB3      30.06F
LOGAN          SUNNY     51  12  21 W16       30.04F
OGDEN          SUNNY     47  16  29 MISG      30.05F
PROVO AIRPORT  NOT AVBL
SALT LAKE CITY MOSUNNY   49  18  29 NW5       30.03F
VERNAL         PTSUNNY   59   1   9 W17G29    29.88F
WENDOVER       SUNNY     52  12  20 SE9       30.07F
HEBER CITY     SUNNY     52   3  14 SW12G17   29.99F
WEST JORDAN    SUNNY     48  16  27 NW15      30.07F

$$

UTZ012>022-026-027-012200-

SOUTHERN/CENTRAL UTAH

CITY           SKY/WX    TMP DP  RH WIND       PRES   REMARKS
BLANDING       MOSUNNY   64  23  20 W15G21    29.96F
BRYCE CANYON   SUNNY     54  15  21 NW8       30.01F
CEDAR CITY     SUNNY     56  16  20 CALM      30.00F
DELTA          SUNNY     52  -2  10 W5        30.04F
HANKSVILLE     SUNNY     68  19  15 NW9       29.90F
MILFORD        SUNNY     55  18  23 N13G20    30.01F
MOAB/CYNLANDS  SUNNY     65  14  14 NW10G23   29.87F
PRICE          SUNNY     57   4  12 W16G26    29.95F
ST GEORGE      CLEAR     73  21  14 W12       29.91F
KANAB          SUNNY     70   5   8 SW17G24   29.95F

$$

REGIONAL REPORTS     COLORADO/ARIZONA

CITY           SKY/WX    TMP DP  RH WIND       PRES   REMARKS
CRAIG, CO      CLOUDY    56  24  29 NW8       29.89F
GRAND JUNCTION   N/A     68  17  14 W26G37    29.83F
RIFLE          PTSUNNY   63  20  19 NW15G22   29.84F
MONTROSE       PTSUNNY   59  24  26 SW31G41   29.89R
CORTEZ         MOSUNNY   70  10  10 SW14G33   29.90F
PAGE, AZ       SUNNY     76   4   6 NW14G22   29.85F
GRAND CANYON   SUNNY     64  14  14 VRB7G17   30.00F
KINGMAN        SUNNY     77  14   9 N5        29.92F
FLAGSTAFF      MOSUNNY   62  22  21 W18G28    30.03F

$$

REGIONAL REPORTS    NEVADA/IDAHO/WYOMING

CITY           SKY/WX    TMP DP  RH WIND       PRES   REMARKS
LAS VEGAS, NV  MOSUNNY   77   7   7 VRB5      29.86F
ELY            SUNNY     50  -3  11 VRB6      30.00F
ELKO           SUNNY     47   9  21 VRB5      30.05F
POCATELLO, ID  MOSUNNY   50  15  24 SW26G33   30.03F
BURLEY         SUNNY     48  17  29 W18G26    30.06F
EVANSTON, WY   MOSUNNY   42  10  27 W20       30.02F
ROCK SPRINGS   MOSUNNY   45   1  16 W26G44    29.95F
KEMMERER       MOSUNNY   39   5  24 W20G25    30.00S WCI  30

$$


USA.gov is the U.S. government's official web portal to all federal, state and local government web resources and services.